EW6612 Weather Reports


Display with metric or nautical units.
time (UTC)temp
F
wind
direction
speed
MPH
gust
MPH
rain 1hr
in
rain 24hr
in
rain mn
in
humidity
%
barometer
mb
20180719224656 66 313 0.0 0.0 0.00 0.00 0.00 88 1019.6
20180719223648 66 346 0.0 0.0 0.00 0.00 0.00 89 1019.6
20180719222643 66 320 0.0 0.0 0.00 0.00 0.00 89 1019.6
20180719221642 66 332 0.0 0.0 0.00 0.00 0.00 89 1019.7
20180719220636 66 311 0.0 0.0 0.00 0.00 0.00 89 1019.6
20180719215637 66 348 0.0 0.0 0.00 0.00 0.00 89 1019.5
20180719214626 66 338 0.0 0.0 0.00 0.00 0.00 89 1019.6
20180719213618 66 351 0.0 0.0 0.00 0.00 0.00 88 1019.7
20180719212610 66 350 0.0 0.0 0.00 0.00 0.00 88 1019.7
20180719211603 66 15 0.0 0.0 0.00 0.00 0.00 87 1019.7
20180719210604 67 321 0.0 0.0 0.00 0.00 0.00 87 1019.6
20180719205600 67 303 0.0 0.0 0.00 0.00 0.00 87 1019.5
20180719204601 67 296 0.0 0.0 0.00 0.00 0.00 87 1019.3
20180719203600 67 5 0.0 0.0 0.00 0.00 0.00 88 1019.2
20180719202557 67 348 0.0 0.0 0.00 0.00 0.00 88 1019.1
20180719201614 67 323 0.0 0.0 0.00 0.00 0.00 89 1019.0
20180719201556 67 298 0.0 0.0 0.00 0.00 0.00 89 1019.0
20180719200557 67 323 0.0 0.0 0.00 0.00 0.00 89 1019.0
20180719195557 67 327 0.0 0.0 0.00 0.00 0.00 89 1019.0
20180719194535 67 311 0.0 0.0 0.00 0.00 0.00 89 1019.1
20180719193531 67 351 0.0 0.0 0.00 0.00 0.00 89 1019.1
20180719192531 67 292 0.0 0.0 0.00 0.00 0.00 88 1019.1
20180719191523 67 314 0.0 0.0 0.00 0.00 0.00 87 1018.9
20180719190520 68 313 0.0 0.0 0.00 0.00 0.00 87 1018.8
20180719185519 68 315 0.0 0.0 0.00 0.00 0.00 87 1018.9
20180719184519 68 350 0.0 0.0 0.00 0.00 0.00 86 1018.9
20180719183518 68 327 0.0 0.0 0.00 0.00 0.00 86 1019.0
20180719182515 69 324 0.0 0.0 0.00 0.00 0.00 86 1019.0
20180719181514 69 316 0.0 0.0 0.00 0.00 0.00 85 1018.9
20180719180513 69 335 0.0 0.0 0.00 0.00 0.00 85 1018.9
20180719175511 69 338 0.0 0.0 0.00 0.00 0.00 84 1018.8
20180719174509 70 286 0.0 0.0 0.00 0.00 0.00 83 1018.7
20180719173507 71 325 0.0 0.0 0.00 0.00 0.00 82 1018.7
20180719172507 71 306 0.0 1.0 0.00 0.00 0.00 81 1018.6
20180719171512 71 319 0.0 0.0 0.00 0.00 0.00 80 1018.7
20180719170507 71 313 0.0 0.0 0.00 0.00 0.00 79 1018.7
20180719165500 71 303 0.0 0.0 0.00 0.00 0.00 80 1018.8
20180719164452 71 355 0.0 0.0 0.00 0.00 0.00 80 1018.7
20180719163516 72 347 0.0 1.0 0.00 0.00 0.00 77 1018.8
20180719163449 71 319 0.0 0.0 0.00 0.00 0.00 79 1018.7
20180719162512 72 347 0.0 1.0 0.00 0.00 0.00 77 1018.8
20180719161450 73 340 0.0 0.0 0.00 0.00 0.00 77 1018.9
20180719160449 73 325 0.0 0.0 0.00 0.00 0.00 75 1018.9
20180719155452 72 320 0.0 0.0 0.00 0.00 0.00 76 1019.0
20180719154445 72 338 0.0 0.0 0.00 0.00 0.00 76 1019.1
20180719153445 72 331 0.0 0.0 0.00 0.00 0.00 75 1019.0
20180719152445 73 311 0.0 0.0 0.00 0.00 0.00 74 1019.0
20180719151445 73 323 0.0 0.0 0.00 0.00 0.00 74 1019.1
20180719150445 73 325 0.0 0.0 0.00 0.00 0.00 74 1019.1
20180719145445 73 238 0.0 0.0 0.00 0.00 0.00 74 1019.2
20180719144450 73 274 0.0 0.0 0.00 0.00 0.00 73 1019.2
20180719143445 74 321 0.0 1.0 0.00 0.00 0.00 70 1019.2
20180719142445 75 319 0.0 0.0 0.00 0.00 0.00 69 1019.1
20180719141442 75 252 0.0 0.0 0.00 0.00 0.00 71 1019.0
20180719140443 74 275 0.0 0.0 0.00 0.00 0.00 71 1019.2
20180719135441 74 336 0.0 0.0 0.00 0.00 0.00 72 1019.2
20180719134437 74 321 0.0 0.0 0.00 0.00 0.00 74 1019.2
20180719133436 73 313 0.0 1.0 0.00 0.00 0.00 73 1019.2
20180719132427 74 335 0.0 0.0 0.00 0.00 0.00 71 1019.1
20180719131427 74 326 0.0 0.0 0.00 0.00 0.00 71 1019.1
20180719130421 74 307 0.0 0.0 0.00 0.00 0.00 73 1019.2
20180719125420 73 0 0.0 0.0 0.00 0.00 0.00 73 1019.2
20180719124417 72 294 0.0 0.0 0.00 0.00 0.00 76 1019.3
20180719123415 72 308 0.0 1.0 0.00 0.00 0.00 74 1019.4
20180719122415 74 317 0.0 0.0 0.00 0.00 0.00 71 1019.3
20180719121415 74 294 0.0 0.0 0.00 0.00 0.00 71 1019.3
20180719120415 74 315 0.0 0.0 0.00 0.00 0.00 73 1019.4
20180719115415 74 267 0.0 0.0 0.00 0.00 0.00 73 1019.4
20180719114415 74 300 0.0 1.0 0.00 0.00 0.00 74 1019.4
20180719113416 73 311 0.0 0.0 0.00 0.00 0.00 74 1019.3
20180719112415 73 325 0.0 0.0 0.00 0.00 0.00 75 1019.4
20180719111414 73 339 0.0 0.0 0.00 0.00 0.00 74 1019.3
20180719110413 74 284 3.0 15.0 0.00 0.00 0.00 73 1019.3
20180719105410 74 324 1.0 11.0 0.00 0.00 0.00 75 1019.3
20180719103407 71 333 0.0 0.0 0.00 0.00 0.00 78 1019.3
20180719102412 71 307 0.0 1.0 0.00 0.00 0.00 78 1019.4
20180719101405 71 288 0.0 0.0 0.00 0.00 0.00 77 1019.4
20180719100405 72 304 0.0 0.0 0.00 0.00 0.00 76 1019.3
20180719095405 71 309 0.0 0.0 0.00 0.00 0.00 76 1019.3
20180719094405 71 306 0.0 0.0 0.00 0.00 0.00 79 1019.2
20180719093402 71 281 0.0 0.0 0.00 0.00 0.00 80 1019.2
20180719092403 71 293 0.0 2.0 0.00 0.00 0.00 79 1019.2
20180719091413 71 335 0.0 0.0 0.00 0.00 0.00 81 1019.2
20180719090403 70 329 0.0 0.0 0.00 0.00 0.00 83 1019.2
20180719085402 69 336 0.0 0.0 0.00 0.00 0.00 83 1019.1
20180719084403 69 325 0.0 0.0 0.00 0.00 0.00 83 1019.0
20180719083359 69 339 0.0 0.0 0.00 0.00 0.00 85 1019.0
20180719082352 68 336 0.0 0.0 0.00 0.00 0.00 86 1018.9
20180719081351 68 340 0.0 0.0 0.00 0.00 0.00 88 1018.8
20180719080350 67 331 0.0 0.0 0.00 0.00 0.00 90 1018.8
20180719075351 67 355 0.0 0.0 0.00 0.00 0.00 91 1018.7
20180719074348 66 340 0.0 0.0 0.00 0.00 0.00 92 1018.7
20180719073349 66 331 0.0 0.0 0.00 0.00 0.00 92 1018.6
20180719072350 65 351 0.0 0.0 0.00 0.00 0.00 92 1018.6
20180719071346 65 305 0.0 0.0 0.00 0.00 0.00 93 1018.6
20180719070347 65 344 0.0 0.0 0.00 0.00 0.00 93 1018.5
20180719065342 65 315 0.0 0.0 0.00 0.00 0.00 93 1018.4
20180719064338 65 325 0.0 0.0 0.00 0.00 0.00 93 1018.3
20180719063329 65 321 0.0 0.0 0.00 0.00 0.00 93 1018.3
20180719062330 65 11 0.0 0.0 0.00 0.00 0.00 93 1018.2
20180719061328 64 320 0.0 0.0 0.00 0.00 0.00 93 1018.2
20180719060316 64 0 0.0 0.0 0.00 0.00 0.00 93 1018.1
20180719055317 64 317 0.0 0.0 0.00 0.00 0.00 92 1018.0
20180719054309 64 317 0.0 0.0 0.00 0.00 0.00 92 1018.0
20180719053302 64 317 0.0 0.0 0.00 0.00 0.00 92 1017.9
20180719052305 64 316 0.0 0.0 0.00 0.00 0.00 92 1017.9
20180719051258 64 316 0.0 0.0 0.00 0.00 0.00 92 1017.8
20180719050248 64 316 0.0 0.0 0.00 0.00 0.00 92 1017.7
20180719045250 64 323 0.0 0.0 0.00 0.00 0.00 92 1017.7
20180719044230 64 333 0.0 0.0 0.00 0.00 0.00 92 1017.8
20180719043230 64 316 0.0 0.0 0.00 0.00 0.00 92 1017.8
20180719042225 64 344 0.0 0.0 0.00 0.00 0.00 91 1017.8
20180719041216 64 344 0.0 0.0 0.00 0.00 0.00 91 1017.7
20180719040209 64 327 0.0 0.0 0.00 0.00 0.00 91 1017.8
20180719035150 64 355 0.0 0.0 0.00 0.00 0.00 91 1017.8
20180719034149 64 323 0.0 0.0 0.00 0.00 0.00 91 1017.9
20180719033145 64 311 0.0 0.0 0.00 0.00 0.00 91 1017.9
20180719032136 64 321 0.0 0.0 0.00 0.00 0.00 91 1017.9
20180719031133 64 328 0.0 0.0 0.00 0.00 0.00 90 1017.9
20180719030125 64 319 0.0 0.0 0.00 0.00 0.00 90 1017.9
20180719025126 65 343 0.0 0.0 0.00 0.00 0.00 90 1017.9
20180719024120 65 342 0.0 0.0 0.00 0.00 0.00 90 1017.9
20180719023118 65 334 0.0 0.0 0.00 0.00 0.00 90 1018.0
20180719022117 65 283 0.0 0.0 0.00 0.00 0.00 90 1018.0
20180719021115 65 355 0.0 0.0 0.00 0.00 0.00 90 1018.1
20180719020106 65 298 0.0 0.0 0.00 0.00 0.00 90 1018.1
20180719015104 65 326 0.0 0.0 0.00 0.00 0.00 90 1018.1
20180719014102 65 342 0.0 0.0 0.00 0.00 0.00 90 1018.1
20180719013059 65 323 0.0 0.0 0.00 0.00 0.00 90 1018.0
20180719012047 65 294 0.0 0.0 0.00 0.00 0.00 90 1018.1
20180719011045 65 304 0.0 0.0 0.00 0.00 0.00 90 1018.2
20180719010034 65 313 0.0 0.0 0.00 0.00 0.00 90 1018.3
20180719005028 65 332 0.0 0.0 0.00 0.00 0.00 90 1018.3
20180719004000 65 346 0.0 0.0 0.00 0.00 0.00 90 1018.3
20180719002951 65 319 0.0 1.0 0.00 0.00 0.00 90 1018.4
20180719001944 65 325 0.0 0.0 0.00 0.00 0.00 90 1018.3
20180719000946 65 322 0.0 0.0 0.00 0.00 0.00 90 1018.4
20180718235942 65 339 0.0 0.0 0.00 0.00 0.00 90 1018.4
20180718234940 65 348 0.0 0.0 0.00 0.00 0.00 90 1018.5
20180718233933 65 329 0.0 0.0 0.00 0.00 0.00 90 1018.6
20180718232930 65 317 0.0 0.0 0.00 0.00 0.00 90 1018.6
20180718231913 65 347 0.0 0.0 0.00 0.00 0.00 89 1018.6
20180718230912 65 318 0.0 0.0 0.00 0.00 0.00 90 1018.6
20180718225908 65 315 0.0 0.0 0.00 0.00 0.00 89 1018.7